This demonstration page uses our WeatherBlox Daily Observations layout. Learn more.

Left ArrowRight Arrow

Hourly Observations for January 9, 2017

Temp ( °F °C ) Dew Point ( °F °C ) Humidity (%) Winds ( mph kmh ) Pressure ( in mb ) Visibility ( mi km ) Precip ( " mm )
12:59 am 00:59 Clear 21 -6.1 4 -15.6 47 47 N 18 30 30.73 1041 10 16 0.00 0.00
1:59 am 01:59 Clear 21 -6.1 5 -15 50 50 N 18 30 30.74 1041 10 16 0.00 0.00
2:59 am 02:59 Clear 21 -6.1 5 -15 50 50 N 13 20 30.73 1041 10 16 0.00 0.00
3:59 am 03:59 Clear 21 -6.1 7 -13.9 54 54 N 10 17 30.73 1041 10 16 0.00 0.00
4:59 am 04:59 Mostly Clear 20 -6.7 7 -13.9 57 57 N 13 20 30.74 1041 10 16 0.00 0.00
5:59 am 05:59 Partly Cloudy 21 -6.1 9 -12.8 59 59 NNW 15 24 30.76 1042 10 16 0.00 0.00
6:59 am 06:59 Partly Cloudy 20 -6.7 10 -12.2 65 65 NNW 14 22 30.78 1042 10 16 0.00 0.00
7:59 am 07:59 Partly Cloudy 20 -6.7 11 -11.7 68 68 N 7 11 30.77 1042 10 16 0.00 0.00
8:59 am 08:59 Partly Cloudy 23 -5 13 -10.6 65 65 N 8 13 30.80 1043 10 16 0.00 0.00
9:59 am 09:59 Mostly Cloudy 24 -4.4 13 -10.6 62 62 NNW 8 13 30.83 1044 10 16 0.00 0.00
10:59 am 10:59 Mostly Cloudy 25 -3.9 14 -10 63 63 NNW 7 11 30.84 1044 10 16 0.00 0.00
11:59 am 11:59 Cloudy 26 -3.3 14 -10 60 60 N 6 9 30.79 1043 10 16 0.00 0.00
12:59 pm 12:59 Mostly Cloudy 26 -3.3 15 -9.4 63 63 NNW 3 6 30.76 1042 10 16 0.00 0.00
1:59 pm 13:59 Mostly Cloudy 28 -2.2 14 -10 56 56 NNW 3 6 30.75 1041 10 16 0.00 0.00
2:59 pm 14:59 Mostly Cloudy 29 -1.7 12 -11.1 49 49 S 5 7 30.73 1041 10 16 0.00 0.00
3:59 pm 15:59 Mostly Cloudy 29 -1.7 12 -11.1 49 49 VRB 5 7 30.72 1040 10 16 0.00 0.00
4:59 pm 16:59 Mostly Cloudy 27 -2.8 10 -12.2 49 49 SE 6 9 30.72 1040 10 16 0.00 0.00
5:59 pm 17:59 Mostly Cloudy 27 -2.8 11 -11.7 51 51 SE 5 7 30.71 1040 10 16 0.00 0.00
6:59 pm 18:59 Mostly Cloudy 24 -4.4 12 -11.1 60 60 SSE 3 6 30.71 1040 10 16 0.00 0.00
7:59 pm 19:59 Mostly Cloudy 23 -5 11 -11.7 60 60 SSE 3 6 30.71 1040 10 16 0.00 0.00
8:59 pm 20:59 Partly Cloudy 22 -5.6 10 -12.2 60 60 WSW 5 7 30.72 1040 10 16 0.00 0.00
9:59 pm 21:59 Clear 18 -7.8 11 -11.7 74 74 Calm 30.73 1041 10 16 0.00 0.00
10:59 pm 22:59 Clear 17 -8.3 12 -11.1 80 80 Calm 30.71 1040 10 16 0.00 0.00
11:59 pm 23:59 Partly Cloudy 20 -6.7 14 -10 78 78 S 3 6 30.68 1039 10 16 0.00 0.00

Powered by AerisWeather